OCEANSAT-2

Last updated on Wed Jul 09 2025 00:02:28 GMT+0000 (Coordinated Universal Time)

1 35931U 09051A 25189.55870041 .00000107 00000+0 98894-4 0 9990 2 35931 98.2241 206.0455 0017165 121.7469 238.5373 13.99601600831267
UTC large
Height (km)
Speed (km/s)
/
Latitude / Longitude
Inclination (degrees)
Orbital Period (minutes)
Azimuth
Elevation
Range (km)
Doppler Factor

Next 0 passes for location: London (51.5072 / 0.1276)

Sorry there are no passes over London.